Location: Krasnoyarskiy Pitomnik
(51.1333°N, 71.6167°E)
Time: 05:57:24
(UTC+00:00)

Transit 4A - Pass Details

Date: 16 April 2024
Orbit: 871 x 971 km, 66.8° (Epoch: 28 May)

Event Time Altitude Azimuth Distance (km) Brightness Sun altitude
Rises 18:15:38 0° 318° (NW) 3,471 11.9 -27.1°
Reaches altitude 10° 18:18:19 10° 309° (NW) 2,528 10.8 -27.2°
Enters shadow 18:23:21 33° 249° (WSW) 1,432 8.8 -27.4°
